Location: Acorn Hill
(36.4429°N, 76.5469°W)
Time: 03:57:36
(UTC+00:00)

Tiangong - Visible Passes

Search period start: 07 December 2022 00:00
Search period end: 17 December 2022 00:00
Orbit: 386 x 393 km, 41.5° (Epoch: 06 December)

Date Brightness Start Highest point End Pass type
(mag) Time Alt. Az. Time Alt. Az. Time Alt. Az.
07 Dec -1.3 22:55:13 10° WNW 22:58:12 36° N 22:59:23 26° NE visible
08 Dec -1.6 23:33:54 10° WNW 23:36:30 55° NW 23:36:30 55° NW visible
09 Dec -1.8 22:35:41 10° WNW 22:38:47 50° NNE 22:41:24 14° E visible
10 Dec 0.9 00:12:45 10° W 00:13:45 17° W 00:13:45 17° W visible
10 Dec -1.7 23:14:19 10° WNW 23:17:27 59° SSW 23:18:48 30° SE visible
11 Dec -2.2 22:15:58 10° WNW 22:19:09 81° NNE 22:22:20 10° ESE visible
11 Dec 0.5 23:53:38 10° W 23:55:48 17° SW 23:56:24 16° SSW visible
12 Dec -0.2 22:54:44 10° W 22:57:34 30° SSW 23:00:24 10° SSE visible
14 Dec 1.0 22:35:27 10° WSW 22:37:25 15° SW 22:39:24 10° S visible
